This demonstration page uses our WeatherBlox Daily Observations layout. Learn more.

Left ArrowRight Arrow

44.8408, -93.29828

Hourly Observations for July 7, 2016

Temp ( °F °C ) Dew Point ( °F °C ) Humidity (%) Winds ( mph kmh ) Pressure ( in mb ) Visibility ( mi km ) Precip ( " mm )
12:53 am 00:53 Cloudy 74 23.3 61 16.1 64 64 E 7 11 29.78 1008 10 16 0.00 0.00
1:53 am 01:53 Cloudy 74 23.3 63 17.2 69 69 Calm 29.80 1009 10 16 0.00 0.00
2:53 am 02:53 Cloudy 73 22.8 63 17.2 71 71 NNE 6 9 29.77 1008 10 16 0.00 0.00
3:53 am 03:53 Cloudy with Light Rain 73 22.8 64 17.8 74 74 S 5 7 29.75 1008 10 16 0.00 0.03
4:53 am 04:53 Cloudy with Light Rain 70 21.1 66 18.9 87 87 SE 22 35 29.67 1005 6 10 0.05 1.27
5:53 am 05:53 Cloudy 69 20.6 64 17.8 84 84 ENE 9 15 29.71 1006 10 16 0.01 0.25
6:53 am 06:53 Cloudy 69 20.6 64 17.8 84 84 W 9 15 29.74 1007 10 16 0.00 0.00
7:53 am 07:53 Cloudy 72 22.2 64 17.8 76 76 VRB 5 7 29.75 1007 10 16 0.00 0.00
8:53 am 08:53 Cloudy 72 22.2 64 17.8 76 76 NNE 7 11 29.74 1007 10 16 0.00 0.00
9:53 am 09:53 Mostly Cloudy 75 23.9 62 16.7 64 64 N 7 11 29.75 1008 10 16 0.00 0.00
10:53 am 10:53 Mostly Cloudy 78 25.6 61 16.1 56 56 Calm 29.75 1007 10 16 0.00 0.00
11:53 am 11:53 Partly Cloudy 79 26.1 61 16.1 54 54 SE 3 6 29.75 1007 10 16 0.00 0.00
12:53 pm 12:53 Mostly Cloudy 80 26.7 62 16.7 54 54 VRB 5 7 29.75 1007 10 16 0.00 0.00
1:53 pm 13:53 Mostly Cloudy 81 27.2 63 17.2 54 54 VRB 3 6 29.74 1007 10 16 0.00 0.00
2:53 pm 14:53 Mostly Cloudy 84 28.9 61 16.1 46 46 W 8 13 29.74 1007 10 16 0.00 0.00
3:53 pm 15:53 Mostly Cloudy 82 27.8 62 16.7 51 51 W 12 19 29.75 1007 10 16 0.00 0.00
4:53 pm 16:53 Mostly Cloudy 80 26.7 63 17.2 56 56 WNW 10 17 29.77 1008 10 16 0.00 0.00
5:53 pm 17:53 Cloudy 78 25.6 65 18.3 64 64 W 12 19 29.77 1008 10 16 0.00 0.03
6:53 pm 18:53 Cloudy with Light Rain 76 24.4 67 19.4 74 74 SW 9 15 29.79 1009 10 16 0.00 0.03
7:53 pm 19:53 Cloudy 74 23.3 67 19.4 79 79 WSW 7 11 29.76 1008 10 16 0.01 0.25
8:53 pm 20:53 Mostly Cloudy 73 22.8 66 18.9 79 79 WSW 7 11 29.74 1007 10 16 0.00 0.03
9:53 pm 21:53 Mostly Cloudy 72 22.2 65 18.3 79 79 WSW 13 20 29.77 1008 10 16 0.00 0.00
10:53 pm 22:53 Mostly Cloudy 71 21.7 66 18.9 84 84 W 9 15 29.78 1009 10 16 0.00 0.00
11:53 pm 23:53 Mostly Cloudy 72 22.2 65 18.3 79 79 W 12 19 29.77 1008 10 16 0.00 0.00

Powered by AerisWeather